Location: Ariel
(45.9570°N, 122.5700°W)
Time: 14:04:00
(UTC-07:00)

A-11 Canister half - Pass Details

Date: 26 August 2019
Orbit: 1514 x 1686 km, 47.2° (Epoch: 18 October)

Event Time Altitude Azimuth Distance (km) Brightness Sun altitude
Rises 23:34:21 0° 291° (WNW) 4,764 12.2 -29.8°
Reaches altitude 10° 23:37:26 10° 288° (WNW) 3,800 11.6 -30.0°
Maximum altitude 23:46:52 59° 212° (SSW) 1,839 9.1 -30.7°
Enters shadow 23:47:58 56° 187° (S) 1,885 9.1 -30.8°
